QPF
0.02 0.01 0.00 0.00 0.00 0.00 0.00 0.00 0.01 0.01 0.00 0.00 0.00 0.00 0.00 0.00 0.00 0.00 0.00 0.00 0.00 0.00 0.00 0.00 0.00 0.00 0.00 0.00 0.00 0.00 0.00 0.00 0.00 0.00 0.00 0.00 0.00 0.00 0.00 0.00 0.00 0.00 0.00 0.00
0.02 0.01 0.00 0.00 0.00 0.00 0.00 0.00 0.05 0.10 0.01 0.00 0.00 0.00 0.00 0.00 0.00 0.00 0.00 0.00 0.00 0.00 0.00 0.00 0.00 0.00 0.00 0.00 0.00 0.00 0.00 0.00 0.00 0.00 0.00 0.00 0.00 0.00 0.00 0.00 0.00 0.00 0.00 0.00
0.02 0.01 0.00 0.00 0.00 0.00 0.00 0.01 0.07 0.08 0.04 0.00 0.00 0.00 0.00 0.00 0.00 0.00 0.00 0.00 0.00 0.00 0.00 0.00 0.00 0.00 0.00 0.00 0.00 0.00 0.00 0.00 0.00 0.00 0.00 0.00 0.00 0.00 0.00 0.00 0.00 0.00 0.00 0.00
0.02 0.01 0.00 0.00 0.00 0.00 0.01 0.03 0.01 0.01 0.01 0.00 0.00 0.00 0.00 0.00 0.00 0.00 0.00 0.00 0.00 0.00 0.00 0.00 0.00 0.00 0.00 0.00 0.00 0.00 0.00 0.00 0.00 0.00 0.00 0.00 0.00 0.00 0.00 0.00 0.00 0.00 0.00 0.00
0.03 0.01 0.01 0.00 0.00 0.01 0.01 0.02 0.00 0.00 0.00 0.00 0.00 0.00 0.00 0.00 0.00 0.00 0.00 0.00 0.00 0.00 0.00 0.00 0.00 0.00 0.00 0.00 0.00 0.00 0.00 0.00 0.00 0.00 0.00 0.00 0.00 0.00 0.00 0.00 0.00 0.00 0.00 0.00
0.01 0.01 0.01 0.00 0.00 0.01 0.01 0.00 0.01 0.03 0.00 0.00 0.01 0.00 0.00 0.00 0.00 0.00 0.00 0.00 0.00 0.00 0.00 0.00 0.00 0.00 0.00 0.00 0.00 0.00 0.00 0.00 0.00 0.00 0.00 0.00 0.00 0.00 0.00 0.00 0.00 0.00 0.00 0.00
0.01 0.01 0.01 0.00 0.00 0.01 0.01 0.01 0.04 0.07 0.03 0.00 0.00 0.00 0.00 0.00 0.00 0.00 0.00 0.00 0.00 0.00 0.00 0.00 0.00 0.00 0.00 0.00 0.00 0.00 0.00 0.00 0.00 0.00 0.00 0.00 0.00 0.00 0.00 0.00 0.00 0.00 0.00 0.00
0.01 0.01 0.00 0.00 0.00 0.01 0.01 0.03 0.06 0.06 0.03 0.00 0.00 0.00 0.00 0.00 0.00 0.01 0.00 0.00 0.00 0.00 0.00 0.00 0.00 0.00 0.00 0.00 0.00 0.00 0.00 0.00 0.00 0.00 0.00 0.00 0.00 0.00 0.00 0.00 0.00 0.00 0.00 0.00
0.00 0.01 0.00 0.00 0.00 0.00 0.00 0.04 0.07 0.08 0.02 0.01 0.00 0.00 0.00 0.00 0.01 0.02 0.02 0.00 0.00 0.00 0.00 0.00 0.00 0.00 0.00 0.00 0.00 0.00 0.00 0.00 0.00 0.00 0.00 0.00 0.00 0.00 0.00 0.00 0.00 0.00 0.00 0.00
0.00 0.01 0.00 0.00 0.00 0.00 0.01 0.03 0.04 0.07 0.03 0.00 0.00 0.00 0.00 0.00 0.00 0.01 0.01 0.00 0.00 0.00 0.00 0.00 0.00 0.00 0.00 0.00 0.00 0.00 0.00 0.00 0.00 0.00 0.00 0.00 0.00 0.00 0.00 0.00 0.00 0.00 0.00 0.00
0.00 0.00 0.00 0.00 0.00 0.00 0.01 0.03 0.02 0.06 0.07 0.00 0.00 0.00 0.00 0.00 0.00 0.02 0.01 0.00 0.00 0.00 0.00 0.00 0.00 0.00 0.00 0.00 0.00 0.00 0.00 0.00 0.00 0.00 0.00 0.00 0.00 0.00 0.00 0.00 0.00 0.00 0.00 0.00
0.01 0.00 0.00 0.00 0.00 0.00 0.01 0.03 0.04 0.05 0.11 0.03 0.00 0.00 0.00 0.00 0.00 0.00 0.00 0.00 0.00 0.00 0.00 0.00 0.00 0.00 0.00 0.00 0.00 0.00 0.00 0.00 0.00 0.00 0.00 0.00 0.00 0.00 0.00 0.00 0.00 0.00 0.00 0.00
0.01 0.00 0.00 0.00 0.00 0.00 0.01 0.06 0.12 0.14 0.04 0.02 0.00 0.00 0.00 0.00 0.00 0.00 0.00 0.00 0.00 0.00 0.00 0.00 0.00 0.00 0.00 0.00 0.00 0.00 0.00 0.00 0.00 0.00 0.00 0.00 0.00 0.00 0.00 0.00 0.00 0.00 0.00 0.00
0.00 0.00 0.00 0.00 0.00 0.00 0.02 0.05 0.09 0.20 0.13 0.06 0.01 0.00 0.00 0.00 0.00 0.00 0.00 0.00 0.00 0.00 0.00 0.00 0.00 0.00 0.00 0.00 0.00 0.00 0.00 0.00 0.00 0.00 0.00 0.00 0.00 0.00 0.00 0.00 0.00 0.00 0.00 0.00
0.00 0.00 0.00 0.00 0.00 0.00 0.03 0.08 0.10 0.19 0.14 0.03 0.00 0.00 0.00 0.00 0.00 0.00 0.00 0.00 0.00 0.00 0.00 0.00 0.00 0.00 0.00 0.00 0.00 0.00 0.00 0.00 0.00 0.00 0.00 0.00 0.00 0.00 0.00 0.00 0.00 0.00 0.00 0.00
0.00 0.00 0.00 0.00 0.00 0.01 0.04 0.06 0.04 0.10 0.09 0.01 0.01 0.00 0.00 0.00 0.00 0.00 0.00 0.00 0.00 0.00 0.00 0.00 0.00 0.00 0.00 0.00 0.00 0.00 0.00 0.00 0.00 0.00 0.00 0.00 0.00 0.00 0.00 0.00 0.00 0.00 0.00 0.00
0.00 0.00 0.01 0.01 0.01 0.02 0.08 0.04 0.02 0.04 0.05 0.05 0.03 0.02 0.00 0.00 0.00 0.00 0.00 0.00 0.00 0.00 0.00 0.00 0.00 0.00 0.00 0.00 0.00 0.00 0.00 0.00 0.00 0.00 0.00 0.00 0.00 0.00 0.00 0.00 0.00 0.00 0.00 0.00
0.01 0.00 0.01 0.00 0.01 0.02 0.02 0.01 0.01 0.01 0.01 0.02 0.04 0.02 0.01 0.00 0.00 0.00 0.00 0.00 0.00 0.00 0.00 0.00 0.00 0.00 0.00 0.00 0.00 0.00 0.00 0.00 0.00 0.00 0.00 0.00 0.00 0.00 0.00 0.00 0.00 0.00 0.00 0.00
0.01 0.00 0.01 0.01 0.05 0.07 0.01 0.00 0.00 0.00 0.01 0.02 0.00 0.01 0.01 0.00 0.01 0.01 0.00 0.00 0.00 0.00 0.00 0.00 0.00 0.00 0.00 0.00 0.00 0.00 0.00 0.00 0.00 0.00 0.00 0.00 0.00 0.00 0.00 0.00 0.00 0.00 0.00 0.00
0.01 0.01 0.03 0.05 0.01 0.01 0.00 0.01 0.01 0.00 0.00 0.00 0.00 0.01 0.01 0.02 0.02 0.02 0.02 0.01 0.01 0.00 0.00 0.00 0.00 0.00 0.00 0.00 0.00 0.00 0.00 0.00 0.00 0.00 0.00 0.00 0.00 0.00 0.00 0.00 0.00 0.00 0.00 0.00
0.04 0.04 0.01 0.00 0.00 0.00 0.00 0.00 0.00 0.00 0.00 0.00 0.00 0.00 0.00 0.01 0.04 0.03 0.01 0.00 0.00 0.00 0.00 0.00 0.00 0.00 0.00 0.00 0.00 0.00 0.00 0.00 0.00 0.00 0.00 0.00 0.00 0.00 0.00 0.00 0.00 0.00 0.00 0.00
0.02 0.00 0.00 0.00 0.00 0.00 0.00 0.00 0.00 0.00 0.00 0.00 0.00 0.00 0.00 0.00 0.00 0.00 0.00 0.00 0.00 0.00 0.00 0.00 0.00 0.00 0.00 0.00 0.00 0.00 0.00 0.00 0.00 0.00 0.00 0.00 0.00 0.00 0.00 0.00 0.00 0.00 0.00 0.00
0.00 0.00 0.00 0.00 0.00 0.00 0.00 0.00 0.00 0.00 0.00 0.00 0.00 0.00 0.00 0.00 0.00 0.00 0.00 0.00 0.00 0.00 0.00 0.00 0.00 0.00 0.00 0.00 0.00 0.00 0.00 0.00 0.00 0.00 0.00 0.00 0.00 0.00 0.00 0.00 0.00 0.00 0.00 0.00
0.00 0.00 0.00 0.00 0.00 0.00 0.00 0.00 0.00 0.00 0.00 0.00 0.00 0.00 0.00 0.00 0.00 0.00 0.00 0.00 0.00 0.00 0.00 0.00 0.00 0.00 0.00 0.00 0.00 0.00 0.00 0.00 0.00 0.00 0.00 0.00 0.00 0.00 0.00 0.00 0.00 0.00 0.00 0.00
0.00 0.00 0.00 0.00 0.00 0.00 0.00 0.00 0.00 0.00 0.00 0.00 0.00 0.00 0.00 0.00 0.00 0.00 0.00 0.00 0.00 0.00 0.00 0.00 0.00 0.00 0.00 0.00 0.00 0.00 0.00 0.00 0.00 0.00 0.00 0.00 0.00 0.00 0.00 0.00 0.00 0.00 0.00 0.00
0.00 0.00 0.00 0.00 0.00 0.00 0.00 0.00 0.00 0.00 0.00 0.00 0.00 0.00 0.00 0.00 0.00 0.00 0.00 0.00 0.00 0.00 0.00 0.00 0.00 0.00 0.00 0.00 0.00 0.00 0.00 0.00 0.00 0.00 0.00 0.00 0.00 0.00 0.00 0.00 0.00 0.00 0.00 0.00
0.00 0.00 0.00 0.00 0.00 0.00 0.00 0.00 0.00 0.00 0.00 0.00 0.00 0.00 0.00 0.00 0.00 0.00 0.00 0.00 0.00 0.00 0.00 0.00 0.00 0.00 0.00 0.00 0.00 0.00 0.00 0.00 0.00 0.00 0.00 0.00 0.00 0.00 0.00 0.00 0.00 0.00 0.00 0.00
MSLP
1006.64 1007.65 1008.48 1009.50 1010.36 1011.31 1012.25 1011.57 1009.98 1008.36 1010.42 1011.48 1009.96 1008.27 1007.24 1006.26 1004.86 1003.76 1003.43 1003.24 1002.70 1002.49 1002.38 1002.82 1003.21 1003.32 1003.07 1003.50 1004.15 1004.95 1005.43 1005.57 1005.45 1005.13 1004.71 1004.92 1005.12 1005.33 1005.60 1006.45 1007.36 1007.50 1007.41 1006.45
1005.68 1006.61 1007.66 1008.67 1009.52 1010.24 1010.59 1010.09 1009.29 1008.98 1008.73 1008.43 1007.76 1007.86 1006.82 1005.62 1004.62 1003.73 1003.39 1003.46 1002.85 1002.43 1002.32 1002.54 1002.86 1003.19 1004.21 1004.10 1004.59 1005.37 1005.52 1005.75 1005.78 1005.37 1005.19 1005.14 1005.33 1005.43 1005.71 1006.20 1006.94 1007.42 1007.45 1006.36
1004.68 1005.57 1006.65 1007.77 1008.59 1009.56 1009.72 1009.14 1008.51 1008.90 1008.51 1007.09 1006.85 1006.68 1005.82 1005.01 1004.34 1003.37 1002.88 1002.94 1002.76 1002.39 1002.37 1002.25 1002.98 1003.42 1004.78 1005.23 1005.40 1006.14 1006.21 1006.01 1006.05 1005.92 1005.37 1005.11 1004.86 1005.40 1005.44 1005.91 1006.77 1007.18 1006.88 1005.96
1003.84 1004.68 1005.66 1006.88 1007.85 1008.70 1009.39 1007.71 1005.96 1005.69 1006.02 1006.24 1005.77 1005.64 1004.99 1004.24 1003.44 1003.14 1003.07 1002.46 1002.41 1002.33 1002.57 1002.50 1002.89 1003.49 1004.93 1005.61 1006.24 1006.52 1006.69 1006.62 1006.71 1006.24 1005.78 1005.47 1005.67 1005.42 1005.30 1005.57 1005.91 1006.22 1006.24 1005.54
1003.06 1003.80 1004.80 1006.12 1007.08 1008.22 1008.51 1006.60 1004.46 1004.36 1004.28 1005.50 1005.45 1004.66 1003.64 1003.08 1002.54 1002.36 1002.67 1002.12 1002.20 1002.13 1002.49 1002.62 1002.80 1003.35 1004.43 1005.20 1006.41 1006.58 1006.81 1007.12 1007.43 1007.23 1006.98 1006.61 1006.43 1006.10 1005.72 1005.61 1005.61 1005.31 1005.21 1004.81
1002.15 1003.03 1003.97 1005.30 1006.52 1007.63 1006.41 1005.49 1004.18 1004.38 1004.37 1004.06 1004.01 1002.23 1002.79 1002.33 1002.01 1001.99 1002.17 1002.04 1002.14 1002.37 1002.49 1002.35 1003.11 1002.89 1003.73 1004.47 1005.59 1006.39 1006.87 1007.78 1008.38 1008.79 1008.64 1008.16 1007.55 1006.32 1005.83 1005.58 1005.35 1005.24 1005.07 1005.03
1001.57 1002.54 1003.51 1004.65 1005.79 1006.39 1005.43 1004.18 1004.30 1003.98 1002.72 1002.53 1001.41 1002.30 1002.28 1001.92 1001.68 1001.86 1001.56 1001.95 1002.21 1002.86 1003.19 1003.59 1003.92 1004.46 1004.87 1005.07 1005.56 1006.21 1006.99 1008.20 1009.23 1010.25 1010.43 1009.01 1006.91 1006.11 1005.87 1005.85 1005.60 1005.43 1005.29 1005.36
1001.35 1002.24 1003.08 1004.11 1004.98 1005.52 1005.70 1004.62 1004.68 1003.92 1002.54 1001.10 1001.74 1001.36 1001.26 1001.26 1001.35 1001.88 1002.84 1002.32 1002.14 1002.87 1003.41 1004.61 1005.70 1006.49 1006.82 1006.48 1006.61 1007.12 1007.34 1008.82 1010.21 1010.96 1010.41 1008.74 1007.25 1006.50 1006.55 1006.35 1006.50 1006.43 1006.56 1006.73
1000.98 1001.91 1002.82 1003.39 1004.30 1005.07 1006.17 1005.29 1005.65 1004.05 1002.46 999.75 999.44 1000.22 1000.73 1000.99 1001.38 1002.77 1003.79 1003.33 1002.93 1003.23 1003.80 1004.99 1005.92 1006.49 1006.47 1006.47 1007.45 1008.05 1008.46 1009.06 1010.40 1011.32 1010.73 1009.28 1007.60 1007.49 1007.34 1007.23 1007.40 1007.59 1007.73 1007.87
1000.66 1001.77 1002.44 1003.25 1003.74 1004.80 1005.89 1005.38 1005.76 1005.19 1002.60 1000.02 999.15 998.82 999.44 1000.43 1001.78 1003.25 1003.99 1004.77 1004.34 1004.19 1004.83 1006.01 1006.35 1006.57 1006.23 1006.29 1007.22 1008.71 1009.58 1010.00 1010.63 1011.00 1010.62 1009.13 1007.49 1007.72 1007.94 1008.16 1009.02 1008.76 1008.88 1008.89
1000.40 1001.37 1002.22 1003.21 1003.94 1004.71 1005.71 1005.42 1005.44 1005.39 1002.91 999.94 998.62 999.16 999.85 999.94 1000.72 1002.83 1005.01 1004.58 1004.03 1004.35 1005.13 1005.76 1006.69 1007.18 1006.79 1006.59 1006.80 1007.89 1008.68 1009.34 1010.09 1010.23 1010.40 1009.32 1007.99 1008.25 1008.57 1009.13 1009.12 1009.36 1009.49 1009.70
1000.04 1000.91 1001.69 1002.66 1003.89 1004.71 1005.55 1004.96 1004.59 1004.51 1004.48 1000.26 999.96 1000.58 1000.09 1000.72 1000.85 1001.04 1003.38 1002.48 1002.93 1003.53 1004.11 1005.50 1006.80 1007.64 1007.71 1007.40 1006.93 1006.57 1007.15 1007.53 1008.24 1008.76 1008.66 1008.42 1008.18 1008.65 1009.20 1009.55 1009.97 1010.31 1010.58 1010.69
999.59 1000.48 1001.10 1002.21 1003.15 1004.12 1004.60 1003.82 1003.59 1002.46 1001.38 1000.17 1000.07 1000.63 1001.63 1001.59 1001.64 1001.26 1002.07 1002.28 1002.13 1002.61 1003.12 1005.40 1007.08 1007.75 1007.50 1007.67 1006.95 1006.51 1006.71 1007.34 1007.77 1008.21 1007.71 1008.12 1008.64 1009.58 1010.41 1010.88 1011.23 1011.32 1011.43 1011.82
999.79 1000.27 1001.34 1001.89 1002.86 1003.81 1004.42 1004.43 1003.61 1002.71 1001.34 1001.24 1001.89 1001.86 1001.95 1001.91 1001.52 1001.54 1001.71 1001.47 1002.11 1002.87 1003.99 1005.81 1007.34 1007.59 1006.96 1007.47 1006.88 1006.62 1007.02 1007.40 1007.79 1008.14 1008.23 1009.06 1010.06 1011.10 1011.76 1011.94 1012.26 1012.42 1012.68 1013.09
998.75 999.63 1000.65 1001.72 1002.67 1003.23 1003.97 1004.00 1002.97 1003.15 1003.57 1002.47 1003.17 1002.84 1002.66 1002.14 1002.13 1002.31 1002.34 1002.34 1002.74 1003.68 1005.15 1006.53 1007.04 1007.16 1007.63 1008.12 1007.79 1007.43 1007.33 1007.76 1008.37 1008.96 1009.89 1010.40 1011.79 1012.51 1012.75 1013.16 1013.66 1013.90 1014.34 1015.29
998.94 999.85 1000.69 1001.28 1002.24 1003.79 1004.94 1003.99 1002.96 1003.21 1002.65 1002.19 1003.63 1004.22 1003.70 1003.00 1002.77 1002.93 1003.07 1003.20 1003.34 1003.99 1005.66 1006.85 1007.25 1007.72 1007.84 1008.54 1008.41 1008.42 1008.76 1009.14 1009.55 1009.98 1010.88 1011.82 1013.01 1013.77 1014.27 1014.84 1015.50 1016.10 1016.65 1017.21
998.71 999.63 1000.94 1002.09 1002.65 1003.59 1003.24 1003.21 1003.19 1002.63 1001.99 1002.40 1004.36 1004.98 1005.07 1004.40 1004.09 1004.31 1004.39 1004.19 1004.66 1005.06 1006.53 1007.76 1008.02 1008.38 1008.47 1009.14 1008.78 1009.36 1009.89 1010.29 1010.91 1011.48 1011.89 1012.86 1013.50 1015.04 1015.95 1016.66 1017.37 1017.81 1018.22 1018.61
999.69 1000.67 1001.48 1002.30 1002.94 1002.89 1002.58 1002.82 1002.62 1003.19 1002.50 1003.05 1004.66 1005.58 1005.84 1005.58 1005.31 1005.89 1005.86 1005.75 1006.13 1007.17 1008.25 1008.87 1008.95 1009.39 1009.49 1009.62 1009.92 1010.34 1010.98 1011.35 1011.99 1012.62 1012.94 1013.79 1015.06 1016.25 1017.19 1017.78 1018.22 1018.56 1019.14 1019.60
999.81 1000.90 1001.87 1002.59 1002.24 1002.77 1003.31 1003.32 1002.89 1002.76 1003.56 1004.44 1005.71 1005.90 1006.33 1006.22 1006.66 1007.01 1007.25 1006.95 1007.94 1008.59 1008.94 1009.27 1009.41 1010.38 1010.62 1010.61 1011.01 1011.44 1012.05 1012.25 1013.12 1013.94 1014.54 1015.26 1016.09 1017.09 1017.86 1018.37 1018.95 1019.28 1019.53 1019.79
1000.06 1000.81 1001.56 1002.18 1002.84 1002.94 1003.15 1003.19 1003.55 1003.40 1004.88 1005.63 1006.34 1006.48 1006.95 1007.10 1007.30 1007.99 1008.32 1008.46 1008.67 1009.17 1009.95 1009.96 1010.30 1011.57 1012.18 1012.42 1012.51 1012.90 1013.07 1013.49 1014.11 1014.83 1015.79 1016.52 1017.12 1017.80 1018.38 1018.76 1019.32 1019.83 1020.33 1020.93
998.75 999.61 1001.43 1002.86 1003.28 1003.11 1003.41 1004.08 1004.52 1005.18 1006.36 1006.86 1006.74 1006.63 1006.95 1007.60 1007.66 1008.47 1008.99 1009.17 1009.39 1009.79 1010.29 1010.52 1011.45 1012.14 1012.96 1013.37 1013.49 1013.52 1013.93 1014.55 1015.08 1015.60 1016.60 1017.12 1017.69 1018.26 1018.92 1019.59 1020.29 1020.87 1021.54 1022.24
998.61 999.53 1001.57 1002.60 1003.00 1003.68 1005.12 1006.03 1006.60 1006.78 1007.59 1007.74 1007.56 1007.31 1007.71 1008.12 1007.66 1008.57 1009.32 1009.66 1009.93 1010.18 1010.79 1011.27 1011.93 1012.98 1013.46 1013.94 1014.14 1014.40 1014.88 1015.47 1016.00 1016.52 1017.15 1017.80 1018.34 1018.93 1019.62 1020.52 1021.24 1021.87 1022.58 1023.24
998.80 1000.36 1002.48 1003.18 1004.94 1005.42 1006.20 1007.01 1007.48 1007.90 1008.17 1008.09 1007.99 1008.19 1008.46 1008.60 1008.64 1009.34 1009.82 1010.23 1010.47 1010.51 1011.32 1011.80 1012.76 1013.58 1014.20 1014.50 1014.87 1015.37 1015.78 1016.28 1016.89 1017.53 1018.18 1019.01 1019.80 1020.44 1021.11 1021.78 1022.27 1022.49 1023.16 1023.94
1001.15 1003.23 1005.27 1006.26 1007.46 1007.97 1008.19 1008.27 1008.40 1009.02 1008.76 1008.47 1008.57 1008.56 1008.85 1009.22 1009.58 1010.04 1010.48 1011.46 1011.22 1011.54 1012.05 1012.48 1013.60 1014.26 1014.73 1015.19 1015.70 1016.27 1016.89 1017.44 1017.80 1018.61 1019.60 1020.35 1020.98 1021.67 1022.32 1022.92 1023.27 1023.68 1024.15 1024.73
1004.51 1006.03 1007.77 1008.72 1009.48 1009.58 1009.54 1009.48 1009.49 1009.61 1009.24 1008.91 1008.69 1008.85 1009.21 1009.85 1010.32 1010.71 1011.48 1011.98 1011.87 1011.94 1012.47 1013.36 1014.16 1014.86 1015.22 1015.77 1016.38 1017.11 1017.77 1018.41 1018.99 1019.77 1020.51 1021.10 1021.65 1022.20 1022.86 1023.46 1023.90 1024.48 1024.94 1025.20
1007.01 1008.37 1009.39 1009.95 1010.17 1010.29 1010.25 1010.39 1010.49 1010.34 1009.76 1009.12 1008.75 1009.21 1009.93 1010.60 1010.88 1011.24 1011.49 1011.90 1012.13 1012.96 1013.66 1014.35 1014.96 1015.51 1015.91 1016.30 1017.11 1017.91 1018.38 1018.88 1019.68 1020.50 1021.12 1021.69 1022.12 1022.56 1023.27 1023.90 1024.32 1024.62 1024.93 1025.29
1009.10 1010.13 1010.45 1010.42 1010.71 1011.08 1011.34 1011.33 1011.27 1010.87 1010.22 1009.85 1009.44 1009.79 1010.78 1011.25 1011.56 1012.10 1012.39 1013.09 1013.66 1014.18 1014.79 1015.35 1015.78 1016.24 1016.60 1017.12 1017.85 1018.44 1018.95 1019.57 1020.29 1020.92 1021.50 1022.14 1022.74 1023.16 1023.51 1023.86 1024.35 1024.58 1024.95 1025.47
Thickness
5487 5494 5503 5508 5516 5520 5519 5541 5556 5580 5569 5563 5587 5602 5618 5631 5645 5657 5656 5657 5661 5661 5668 5659 5658 5659 5674 5686 5681 5662 5674 5666 5650 5661 5683 5686 5677 5669 5671 5638 5637 5643 5636 5643
5474 5485 5492 5499 5507 5512 5524 5542 5554 5562 5572 5575 5590 5600 5612 5629 5637 5644 5648 5643 5659 5669 5663 5656 5665 5671 5668 5678 5674 5665 5670 5655 5633 5646 5665 5673 5661 5668 5669 5666 5653 5636 5618 5643
5460 5474 5485 5492 5501 5503 5517 5536 5539 5545 5562 5593 5593 5595 5607 5617 5637 5644 5654 5650 5659 5660 5656 5670 5658 5662 5658 5664 5666 5649 5659 5657 5645 5630 5650 5665 5659 5659 5666 5660 5625 5632 5635 5655
5445 5460 5475 5486 5492 5497 5501 5526 5557 5572 5572 5579 5594 5600 5610 5615 5624 5641 5647 5648 5651 5653 5643 5653 5653 5663 5650 5654 5640 5652 5652 5637 5647 5655 5661 5663 5656 5657 5662 5654 5656 5636 5648 5654
5427 5448 5460 5474 5483 5485 5491 5528 5561 5578 5589 5582 5585 5596 5611 5618 5631 5637 5634 5642 5652 5657 5646 5653 5650 5657 5650 5646 5645 5645 5650 5633 5635 5635 5647 5649 5639 5648 5654 5656 5657 5659 5660 5658
5413 5432 5451 5465 5466 5468 5498 5535 5559 5566 5575 5583 5585 5611 5611 5621 5634 5640 5645 5650 5650 5648 5657 5667 5662 5673 5667 5663 5647 5638 5639 5627 5618 5610 5623 5619 5606 5635 5643 5650 5659 5656 5641 5658
5398 5419 5436 5450 5454 5469 5517 5545 5550 5559 5576 5586 5607 5603 5611 5621 5630 5634 5648 5648 5646 5650 5659 5659 5657 5654 5653 5654 5651 5650 5634 5625 5612 5601 5587 5583 5636 5655 5652 5644 5651 5655 5654 5655
5384 5404 5426 5437 5453 5475 5498 5525 5539 5558 5563 5599 5592 5604 5610 5624 5634 5630 5625 5641 5651 5653 5649 5629 5616 5612 5609 5624 5636 5633 5639 5617 5596 5582 5596 5619 5632 5642 5637 5634 5630 5640 5639 5639
5377 5393 5414 5437 5451 5472 5485 5510 5527 5556 5571 5597 5617 5606 5611 5609 5616 5612 5600 5624 5645 5646 5633 5620 5610 5605 5621 5617 5614 5623 5623 5622 5600 5588 5586 5574 5623 5631 5637 5634 5608 5629 5628 5623
5376 5388 5407 5431 5454 5472 5486 5510 5524 5540 5562 5593 5607 5607 5612 5624 5610 5598 5606 5604 5615 5628 5612 5594 5609 5612 5632 5614 5603 5578 5589 5586 5580 5583 5579 5599 5630 5629 5626 5599 5597 5613 5613 5611
5374 5390 5408 5431 5452 5472 5487 5513 5524 5533 5563 5592 5608 5619 5613 5622 5618 5586 5580 5597 5610 5615 5604 5605 5611 5600 5617 5619 5622 5598 5589 5588 5572 5587 5565 5569 5625 5615 5602 5605 5610 5607 5605 5601
5379 5400 5418 5437 5455 5471 5487 5509 5524 5535 5544 5572 5587 5590 5606 5607 5614 5614 5597 5620 5621 5624 5619 5610 5609 5588 5585 5606 5602 5629 5605 5613 5602 5599 5593 5614 5617 5609 5608 5605 5597 5592 5588 5586
5395 5414 5434 5447 5467 5481 5499 5521 5533 5544 5562 5568 5582 5587 5591 5602 5607 5616 5609 5617 5631 5631 5638 5616 5605 5582 5607 5581 5605 5614 5620 5617 5605 5603 5614 5610 5607 5599 5592 5586 5580 5579 5576 5569
5407 5428 5442 5459 5475 5487 5498 5510 5526 5542 5563 5559 5567 5579 5584 5595 5605 5612 5619 5627 5631 5629 5623 5605 5580 5586 5618 5600 5612 5610 5610 5610 5602 5602 5605 5596 5586 5578 5573 5570 5567 5562 5558 5551
5437 5450 5460 5475 5486 5500 5508 5522 5537 5541 5544 5550 5552 5569 5577 5589 5594 5600 5608 5614 5615 5612 5599 5577 5594 5604 5598 5593 5597 5596 5607 5600 5587 5583 5582 5577 5562 5558 5558 5552 5545 5542 5535 5519
5458 5468 5476 5488 5498 5499 5502 5521 5532 5538 5546 5557 5544 5554 5563 5577 5586 5591 5596 5603 5608 5607 5592 5588 5597 5595 5595 5575 5585 5590 5587 5584 5580 5574 5569 5560 5548 5541 5534 5527 5519 5510 5501 5492
5475 5482 5486 5491 5498 5505 5525 5533 5534 5539 5550 5550 5535 5539 5548 5562 5571 5575 5581 5591 5592 5597 5586 5576 5583 5584 5586 5564 5579 5577 5571 5568 5562 5556 5553 5542 5539 5519 5510 5500 5490 5484 5477 5471
5481 5485 5491 5497 5504 5514 5526 5528 5533 5534 5547 5547 5529 5523 5539 5548 5554 5554 5566 5572 5577 5571 5562 5564 5567 5567 5567 5567 5566 5562 5555 5552 5546 5540 5535 5526 5512 5498 5487 5480 5474 5468 5458 5452
5493 5494 5497 5501 5514 5522 5519 5522 5530 5539 5537 5532 5514 5530 5535 5542 5541 5542 5551 5561 5548 5555 5552 5557 5561 5548 5554 5556 5550 5545 5537 5537 5527 5517 5511 5503 5492 5479 5471 5465 5457 5451 5448 5444
5500 5506 5510 5507 5510 5513 5518 5527 5528 5532 5521 5522 5517 5527 5529 5534 5533 5532 5537 5537 5542 5546 5539 5547 5542 5527 5529 5525 5527 5521 5521 5516 5507 5497 5484 5476 5470 5463 5458 5454 5446 5438 5431 5422
5521 5517 5505 5503 5505 5518 5522 5511 5521 5521 5509 5511 5520 5527 5528 5526 5529 5522 5528 5529 5534 5534 5535 5537 5528 5528 5510 5509 5508 5509 5504 5495 5488 5482 5470 5466 5458 5451 5442 5434 5424 5416 5406 5395
5525 5523 5512 5511 5516 5516 5500 5496 5499 5505 5504 5499 5511 5517 5518 5515 5533 5524 5523 5518 5524 5525 5522 5516 5524 5501 5497 5493 5492 5489 5483 5475 5469 5465 5458 5450 5444 5437 5427 5415 5404 5394 5383 5371
5525 5517 5497 5512 5490 5503 5503 5501 5502 5499 5493 5496 5504 5503 5506 5510 5516 5507 5508 5508 5516 5519 5507 5516 5501 5486 5482 5481 5477 5471 5466 5460 5452 5446 5439 5428 5417 5408 5399 5389 5381 5375 5366 5353
5504 5491 5482 5485 5483 5475 5480 5487 5488 5477 5483 5493 5493 5495 5500 5499 5494 5497 5499 5484 5498 5497 5501 5507 5477 5470 5468 5465 5460 5452 5444 5434 5433 5425 5412 5401 5392 5382 5372 5363 5357 5350 5344 5335
5478 5472 5466 5459 5452 5455 5459 5464 5470 5470 5481 5490 5495 5495 5496 5487 5487 5488 5479 5481 5493 5500 5501 5476 5461 5454 5454 5448 5441 5431 5421 5414 5410 5401 5389 5381 5374 5367 5357 5348 5341 5331 5321 5315
5457 5450 5453 5448 5456 5457 5457 5459 5461 5464 5474 5486 5498 5488 5483 5480 5481 5486 5491 5494 5498 5477 5460 5447 5442 5439 5437 5435 5422 5413 5409 5404 5392 5382 5373 5364 5357 5350 5341 5331 5322 5314 5306 5296
5445 5441 5437 5445 5446 5447 5446 5448 5452 5457 5469 5476 5485 5482 5472 5472 5473 5471 5467 5464 5453 5443 5434 5429 5425 5421 5420 5413 5404 5395 5391 5385 5375 5366 5358 5348 5339 5331 5326 5319 5307 5302 5294 5279